Theta_e
327 327 328 330 330 330 328 327 327 326 325 324 324 325 325 325 326 327 330 330 329 328 329 329 327 327 329 331 331 331 330 329 329 330 331 330 329 328 326 326 328 330 330 330 330 330 329 329 327 328 329 328 328 329 329 330 331 331 331 332 332 331 331
326 327 328 330 331 331 330 329 328 327 325 323 324 325 325 326 327 328 329 330 329 329 328 328 328 327 328 329 330 330 328 328 329 329 329 328 327 327 327 326 326 327 328 328 329 329 330 329 328 328 328 328 328 329 329 330 330 331 331 332 333 333 333
326 327 328 330 331 331 331 330 328 327 325 324 325 326 326 326 327 328 328 328 328 329 328 328 328 328 329 329 330 329 327 326 327 327 326 325 325 326 326 326 327 328 328 328 329 329 329 329 329 329 329 329 328 328 329 329 328 330 331 332 332 333 333
326 327 328 330 331 332 331 331 329 327 325 326 327 327 327 327 327 327 327 327 327 328 329 329 329 329 329 329 328 327 327 327 327 326 325 325 326 326 327 328 329 329 329 329 330 330 330 330 329 329 329 329 329 328 329 328 328 328 329 330 330 331 331
326 327 329 330 330 331 331 331 331 329 327 326 327 328 329 329 329 328 327 326 326 327 328 328 328 328 328 328 328 327 327 327 327 327 327 328 329 328 329 330 331 330 329 329 330 330 330 330 330 329 329 329 329 329 329 329 329 329 329 329 329 329 329
326 328 330 330 330 330 331 332 332 331 330 329 329 329 330 331 331 330 329 327 326 327 328 328 329 329 328 328 328 327 327 327 327 328 329 331 331 331 331 331 331 330 330 330 330 330 331 330 330 330 330 330 330 329 329 329 329 329 329 329 329 329 329
327 328 330 329 329 330 330 332 332 332 331 330 330 331 331 331 331 330 329 327 327 328 329 331 331 330 329 328 327 327 328 328 329 330 331 331 331 331 331 331 330 330 330 330 330 330 330 330 331 331 331 331 330 329 328 328 328 327 328 329 329 329 329
327 328 330 330 329 330 331 332 332 333 332 331 331 332 331 331 331 331 329 328 327 329 330 331 331 331 330 328 328 328 329 329 330 331 331 331 331 331 331 330 330 330 330 330 329 329 329 329 330 330 331 331 330 328 327 327 326 326 326 327 327 328 328
328 329 329 329 330 331 331 332 334 334 333 332 332 331 331 331 331 331 330 329 328 329 330 331 331 331 331 330 329 328 330 331 331 332 332 332 331 331 330 330 329 330 329 329 329 328 328 329 329 329 330 330 329 328 327 325 324 324 325 325 326 326 327
329 329 329 328 329 331 332 333 333 332 329 329 331 332 331 331 330 331 331 330 330 329 330 331 331 332 332 332 330 329 330 331 331 332 332 332 332 331 329 329 329 329 329 328 327 327 328 329 328 329 329 329 328 328 328 327 326 325 326 326 326 326 327
330 330 329 328 328 331 332 332 330 327 325 328 332 333 332 332 331 330 330 330 329 329 330 330 331 333 333 333 332 331 331 331 331 331 331 332 331 330 329 329 329 329 329 328 327 327 327 328 329 329 328 329 329 328 328 328 328 326 326 326 326 327 326
331 331 330 328 329 331 331 329 327 326 326 327 331 332 333 333 332 330 329 329 329 329 330 331 332 332 333 333 333 331 331 331 331 331 331 331 331 330 329 329 328 328 328 327 327 328 328 328 328 328 327 328 328 327 327 328 328 326 326 327 327 327 326
331 331 329 329 330 330 328 328 328 328 327 326 328 331 332 333 333 332 330 329 329 329 330 330 331 332 332 332 332 331 331 331 331 331 331 330 330 329 329 328 328 328 327 327 327 327 327 327 327 326 326 326 327 327 327 327 327 326 325 326 325 326 326
332 331 330 331 331 330 329 329 328 329 328 327 328 330 331 332 333 333 332 330 330 329 329 328 328 329 330 330 330 330 330 331 331 330 329 328 328 328 329 328 327 327 327 327 327 327 326 326 325 326 325 326 326 326 326 327 326 325 323 323 323 324 324
333 332 333 334 333 330 329 329 328 329 329 328 329 330 331 331 331 331 331 331 331 330 329 327 326 327 328 328 329 329 329 330 329 329 329 329 329 330 330 329 328 327 327 326 327 327 326 326 326 326 326 326 325 325 325 326 326 325 323 321 321 321 322
333 333 335 336 333 330 329 328 328 329 329 329 330 330 331 330 329 330 329 329 329 329 329 328 326 326 328 328 328 328 329 329 330 330 329 328 328 327 327 328 328 328 328 328 328 327 327 327 327 327 327 326 324 324 325 325 326 325 324 321 320 320 319
332 332 335 336 334 331 331 330 329 329 329 329 330 329 329 329 329 329 328 328 327 326 327 329 327 327 328 329 329 329 329 330 330 328 325 323 323 322 321 323 324 325 327 328 328 328 328 328 328 328 328 326 325 325 326 326 325 325 324 322 319 318 317
331 330 333 335 333 331 331 331 331 330 330 330 330 329 329 328 327 327 327 327 327 326 327 328 328 328 329 330 330 329 328 329 329 328 326 324 322 320 320 321 323 324 326 328 328 327 327 327 328 329 328 327 326 326 326 326 325 324 323 321 318 315 314
329 328 331 332 331 331 331 331 331 330 330 330 330 330 329 326 326 326 326 326 326 326 327 329 329 330 331 331 329 328 327 326 326 327 328 328 327 324 323 323 323 323 323 324 325 324 324 325 327 328 328 327 327 326 326 324 323 321 319 317 314 312 311
328 328 330 331 330 330 331 331 331 331 331 331 331 330 328 328 327 326 324 323 323 324 326 328 331 331 330 330 328 328 327 325 324 325 326 326 326 325 324 322 321 320 320 320 323 323 323 324 327 328 328 326 325 325 324 321 319 316 314 312 311 310 310
327 328 330 330 329 330 331 330 330 330 331 331 331 331 329 329 329 327 324 321 320 321 323 326 329 328 327 328 328 326 325 324 323 324 324 325 325 325 323 321 320 320 320 321 323 324 324 325 327 327 326 325 323 321 319 316 313 312 311 311 310 310 310
324 326 328 329 328 330 330 330 330 329 330 331 331 332 331 330 330 329 326 322 320 320 322 324 326 326 325 327 327 326 326 326 325 324 324 324 325 325 323 322 323 321 320 322 325 325 325 326 326 325 325 323 320 316 314 312 311 311 311 310 310 309 309
324 324 326 326 327 329 330 330 330 328 328 330 330 331 331 331 331 329 325 322 320 320 321 323 326 327 327 328 328 328 328 327 327 326 325 324 324 324 324 324 325 323 321 323 326 326 325 325 325 325 324 321 316 313 312 311 311 311 310 310 310 309 309
324 324 324 325 326 328 329 329 329 328 328 329 329 330 330 330 330 328 323 321 321 320 320 323 327 329 329 329 328 328 328 328 327 327 327 326 326 326 326 327 327 327 324 324 325 326 325 324 324 324 322 318 314 312 311 312 312 311 310 309 310 310 309
324 324 324 325 325 326 328 329 329 329 328 328 328 329 329 328 326 325 322 320 321 321 321 324 327 329 329 328 328 328 328 327 325 326 327 327 328 328 328 328 328 328 327 326 326 325 325 324 323 323 320 316 313 311 312 312 312 310 310 310 310 310 310
325 325 324 325 325 326 327 327 328 328 328 328 328 328 328 327 326 323 322 321 321 320 321 324 328 328 327 327 328 328 328 327 325 326 326 326 327 328 329 329 328 328 327 327 326 325 324 324 322 321 318 315 312 311 312 312 311 310 310 310 310 310 311
326 326 326 325 326 327 327 327 327 327 328 328 328 327 327 328 327 325 323 322 322 321 321 324 328 328 327 328 329 329 329 329 327 326 325 324 325 327 328 328 328 328 327 327 325 324 324 323 322 320 317 314 312 312 312 312 311 310 310 310 309 309 311
326 326 326 326 327 327 327 326 327 327 327 327 328 327 328 329 329 328 326 324 323 322 322 324 327 329 329 330 331 331 330 330 329 327 326 325 325 325 325 326 326 327 327 326 324 323 322 322 321 320 317 313 312 312 313 312 311 310 310 310 309 309 310
326 326 326 327 327 326 327 326 326 327 327 327 327 328 328 329 329 329 328 326 324 323 323 324 327 330 330 331 332 330 329 329 329 328 327 326 324 323 323 325 326 327 326 326 324 323 322 321 321 320 316 313 312 312 312 312 311 310 310 310 310 310 309
325 326 326 327 326 326 326 326 326 327 327 327 327 326 327 327 328 329 328 327 325 324 324 326 328 330 331 331 332 331 329 329 329 329 328 326 324 323 323 324 326 326 326 325 324 323 322 321 320 319 316 313 311 312 312 312 311 311 310 310 311 310 309
324 324 325 326 326 326 326 326 326 326 327 327 326 325 325 325 326 326 326 325 324 324 325 327 329 329 330 330 331 331 331 330 329 329 328 327 325 325 324 324 325 326 325 325 324 323 322 321 320 319 316 312 311 312 312 312 312 311 311 311 311 311 310
321 322 323 324 326 326 326 326 326 326 327 327 325 324 323 324 324 324 324 324 325 325 326 326 326 327 328 329 330 330 331 331 330 329 329 327 327 326 325 325 325 325 325 324 324 323 322 321 320 319 316 312 311 312 313 313 312 311 311 312 312 312 311
319 319 320 322 324 326 326 326 326 326 327 327 325 324 323 323 324 324 324 325 325 324 323 322 322 323 324 325 327 328 329 329 328 327 327 328 328 327 326 325 324 324 324 324 324 324 323 321 320 319 316 313 311 312 313 313 312 312 312 312 312 312 311
319 319 320 322 324 326 326 326 326 326 327 327 325 324 323 324 324 324 324 324 323 322 321 321 322 322 323 323 324 325 325 325 324 325 326 327 327 327 327 326 325 324 324 324 324 323 323 322 320 318 317 315 312 312 313 313 313 312 312 312 312 312 312
320 320 322 324 325 326 326 326 327 327 326 326 325 324 323 324 324 325 324 324 323 323 323 323 322 322 322 323 323 323 323 322 323 324 324 325 326 326 325 326 325 325 325 325 324 323 323 322 320 318 318 317 313 311 312 313 313 313 312 312 312 312 312
323 323 324 325 325 326 326 327 327 327 325 324 324 323 323 323 324 324 324 324 324 324 324 323 323 322 322 322 322 322 322 322 323 324 324 324 324 324 325 325 326 326 325 325 324 324 323 322 320 319 319 318 314 312 313 313 313 313 313 312 312 312 312
325 325 325 325 325 325 326 327 327 325 324 323 322 322 322 322 322 322 323 323 323 323 323 323 323 323 323 323 323 322 322 322 323 325 325 324 324 323 324 325 326 326 326 325 324 323 322 321 320 319 319 318 314 312 312 314 313 313 313 312 312 312 312
Wind_Speed
11 10 9 9 10 10 11 11 11 11 12 12 12 12 12 13 13 12 12 11 12 12 13 12 12 12 12 11 10 10 9 10 8 7 6 6 6 5 5 5 5 6 6 7 7 8 8 9 7 5 5 6 7 7 8 8 9 9 9 9 9 9 9
12 11 10 10 10 11 12 12 12 12 12 11 11 11 12 12 12 12 12 11 12 12 13 12 12 13 13 12 12 11 10 10 9 8 7 7 7 7 7 7 7 7 7 7 8 8 8 10 10 7 6 6 6 5 6 8 8 9 9 9 9 9 9
13 12 11 10 11 12 12 12 12 11 11 11 11 11 11 11 11 11 11 11 12 13 13 13 13 13 12 12 12 11 11 11 10 9 9 9 9 9 9 8 8 8 7 7 7 7 7 8 9 9 8 8 7 5 4 6 8 8 9 8 8 9 9
15 13 13 11 11 13 12 11 10 10 10 10 11 12 11 11 11 11 11 11 12 13 13 13 13 13 12 12 12 12 11 11 10 10 10 10 10 10 9 8 7 7 7 6 6 7 7 7 9 9 8 8 9 7 5 6 6 6 7 8 8 8 9
16 15 14 12 11 13 12 11 10 11 11 10 11 12 12 11 12 12 12 11 12 12 12 12 12 12 13 13 13 13 12 12 11 10 9 9 9 9 8 8 7 7 7 7 7 7 8 7 9 9 8 8 9 8 6 6 5 4 5 6 7 8 8
16 15 13 12 11 12 12 12 11 11 11 11 11 11 10 10 10 11 11 11 10 10 10 11 11 12 12 13 13 13 13 12 11 10 9 8 8 8 8 8 8 7 7 7 7 7 7 7 7 8 7 8 9 9 8 8 6 5 4 5 6 7 8
17 16 13 11 10 12 12 12 11 10 10 10 10 10 10 10 10 10 10 10 10 9 10 10 10 11 12 12 13 13 12 12 11 10 10 9 8 8 8 8 8 7 7 6 7 6 6 6 6 7 7 8 10 10 10 9 8 7 6 5 5 6 8
18 16 14 12 11 11 12 12 11 10 9 9 9 10 10 11 11 10 11 11 10 10 10 11 11 11 11 12 13 12 12 12 12 11 10 10 8 8 8 7 8 7 7 7 7 6 6 6 6 7 7 8 10 11 11 9 8 9 8 7 6 6 8
18 16 14 13 12 11 11 11 11 9 9 9 10 11 12 12 12 12 12 12 12 12 12 12 12 11 12 12 12 12 12 12 12 11 9 9 8 8 8 7 7 7 7 7 7 6 6 7 7 7 7 8 10 12 13 12 10 9 9 9 9 8 8
19 17 15 13 12 12 11 11 10 10 12 13 12 13 13 14 14 13 13 13 13 13 13 13 13 13 12 12 12 12 12 11 11 10 9 9 9 8 8 8 8 7 7 7 7 7 7 7 7 8 8 8 9 11 12 14 14 12 10 11 12 12 11
19 18 16 15 14 13 13 13 13 13 14 14 13 13 14 15 15 14 14 14 14 14 13 13 14 14 13 13 13 13 12 11 11 10 9 9 9 9 9 9 8 7 7 7 7 8 8 7 7 7 7 8 9 10 11 14 15 14 12 13 14 14 14
19 18 17 15 14 15 15 16 16 14 13 13 14 14 14 15 15 14 14 14 14 14 14 13 14 14 15 14 14 14 13 12 12 11 11 11 11 11 10 10 9 9 9 9 8 8 8 7 7 7 7 8 9 10 11 13 16 16 15 15 15 15 16
18 17 15 14 13 15 16 16 14 13 12 13 14 14 14 14 14 15 14 14 14 15 14 13 14 15 15 15 15 15 14 14 13 12 13 13 13 12 11 10 10 9 9 9 8 8 8 8 8 9 8 9 9 11 12 13 16 16 15 15 16 16 17
17 17 15 13 13 15 16 14 12 12 13 14 14 15 15 14 15 15 15 15 14 15 15 14 14 15 16 16 15 15 16 15 15 14 14 14 13 12 11 9 9 9 8 9 9 9 8 9 9 9 9 9 10 11 12 12 15 16 14 14 15 16 17
16 16 15 15 15 16 16 13 13 13 14 14 15 15 15 14 15 16 16 16 16 16 16 17 16 16 17 17 16 16 16 16 16 16 15 14 13 11 10 9 9 9 9 9 10 10 9 9 9 9 9 9 10 11 12 12 13 15 16 16 16 17 17
14 15 15 16 17 17 16 15 15 16 15 15 15 15 14 14 15 16 17 17 17 17 17 18 17 17 16 17 17 17 16 17 17 15 13 12 11 9 10 10 9 9 10 11 11 11 11 10 10 10 10 10 10 11 12 12 13 15 18 20 19 19 19
14 14 15 17 18 17 17 16 16 16 15 15 15 14 14 13 14 16 16 17 18 18 18 17 17 17 16 16 16 15 15 16 15 13 13 13 12 11 11 12 11 11 12 12 12 12 12 12 12 11 11 11 11 12 12 13 14 16 19 21 22 22 23
15 14 15 17 17 16 16 16 16 16 16 16 15 15 14 14 14 15 16 16 17 18 17 17 17 17 16 15 14 14 15 16 13 11 12 14 14 13 14 14 14 13 13 12 12 12 13 13 13 12 12 12 12 12 13 14 16 18 20 22 23 24 24
15 14 15 16 16 15 16 16 16 16 16 15 15 14 14 15 16 16 16 15 16 16 16 17 18 18 16 15 14 14 16 15 12 10 11 12 13 13 14 14 14 14 15 15 13 13 13 13 14 13 12 12 12 13 15 16 18 19 20 21 22 23 24
14 13 14 15 15 14 14 15 15 15 14 14 14 14 14 14 15 15 14 13 14 15 16 18 19 19 18 16 14 14 15 15 14 12 11 11 12 12 12 12 13 15 17 16 14 12 12 13 14 13 12 12 13 15 16 18 18 18 19 19 19 20 21
13 13 14 15 14 14 14 14 15 15 14 15 15 14 13 13 14 13 13 12 13 14 16 18 20 20 19 17 15 14 14 14 14 14 12 12 13 13 13 14 15 17 17 15 13 12 11 12 13 12 11 13 14 15 16 16 16 16 16 16 16 17 18
12 12 14 15 16 15 15 15 15 15 15 15 15 15 14 14 14 13 13 13 14 15 17 18 19 19 19 17 16 15 14 13 14 14 14 14 14 14 14 15 15 16 15 14 13 11 11 11 12 12 13 13 13 13 14 14 13 12 12 12 12 13 15
13 13 14 15 16 16 15 15 15 15 15 15 16 16 16 15 15 14 13 14 15 16 17 17 18 18 18 17 16 15 14 14 15 15 14 14 15 15 15 16 15 15 15 15 13 12 12 12 13 14 14 13 12 12 12 11 10 9 9 9 10 12 14
15 15 15 15 15 16 15 15 15 15 15 15 16 16 17 17 16 15 14 15 16 16 16 17 17 17 17 16 15 14 14 14 15 14 14 14 15 16 17 17 16 16 16 15 14 13 14 14 15 15 14 12 12 12 11 9 8 7 8 9 10 12 14
17 17 16 15 15 15 15 15 15 16 16 16 16 16 17 17 16 15 15 16 17 16 17 18 18 17 17 16 15 15 14 14 14 13 14 15 16 17 18 17 16 16 16 16 15 15 15 15 16 15 13 12 11 11 9 8 7 7 8 9 11 13 14
20 20 19 18 16 15 15 15 16 16 16 16 16 16 17 17 16 15 15 17 17 16 17 18 18 18 18 17 15 15 15 15 13 13 15 16 17 17 17 17 17 16 16 16 16 15 15 16 15 14 12 12 11 10 9 8 7 7 8 10 12 13 14
24 23 22 21 20 18 16 15 15 16 16 17 17 17 17 17 17 16 16 16 17 16 17 18 18 18 18 17 16 16 16 15 15 15 16 17 17 17 17 17 17 16 16 16 15 14 14 14 14 14 13 12 12 11 10 8 7 6 7 9 12 13 14
29 27 25 24 23 21 18 16 15 15 17 17 18 18 17 17 18 17 17 17 17 17 17 18 18 19 18 16 16 17 17 17 18 19 19 18 17 17 17 17 17 16 16 15 14 13 13 13 13 14 14 13 13 12 11 8 7 6 7 9 11 13 14
32 30 28 27 26 24 20 18 16 16 16 17 18 18 19 19 19 19 19 18 18 18 17 18 19 19 18 16 17 18 18 19 19 19 19 18 17 17 17 17 17 16 15 14 14 14 13 13 14 15 15 14 14 13 11 9 7 7 7 9 11 13 15
33 31 30 29 29 26 22 19 17 16 16 17 17 18 19 20 20 20 20 20 20 19 17 17 18 18 18 17 18 19 19 19 19 19 18 18 17 17 17 17 16 16 15 15 16 15 14 14 16 16 16 16 15 15 13 10 8 8 8 9 11 14 15
31 30 30 30 30 28 23 20 18 17 16 16 16 16 17 17 18 19 19 20 19 19 17 16 16 18 19 19 19 19 19 19 19 18 18 18 18 18 17 17 16 16 16 16 17 16 15 16 17 17 17 17 17 17 14 10 9 10 10 10 12 14 16
29 28 29 29 29 27 24 21 18 17 16 15 15 15 15 16 17 17 17 18 17 17 16 15 16 17 18 19 19 19 20 20 20 19 18 18 19 19 18 17 17 17 16 16 17 17 16 17 19 18 17 18 20 19 15 11 11 12 11 11 13 15 17
29 28 28 28 27 26 24 21 18 16 16 16 15 15 15 16 17 16 16 16 16 16 15 14 14 15 16 17 18 19 20 21 21 21 20 19 19 19 19 18 17 17 16 16 18 19 18 18 20 19 18 20 21 19 15 13 14 13 12 13 14 16 18
28 27 27 27 26 26 24 21 18 16 16 17 16 16 16 17 17 16 15 15 15 14 13 13 13 13 14 14 15 17 18 18 18 19 20 20 20 20 20 19 18 17 17 17 19 21 20 19 20 21 21 21 20 19 17 16 16 15 14 14 15 17 19
27 26 26 25 25 25 23 20 18 17 17 17 17 16 16 16 17 16 16 16 15 14 14 13 12 12 12 13 13 15 15 15 15 16 18 19 20 21 21 20 19 17 17 18 20 22 21 20 21 23 22 20 20 21 20 18 17 16 15 15 16 18 20
24 24 24 23 22 22 22 21 19 18 18 18 17 17 16 16 16 17 16 16 15 14 13 13 12 12 12 12 13 14 15 16 16 17 17 18 19 19 20 20 18 17 18 20 21 22 23 23 23 24 23 21 22 23 22 21 19 18 17 16 17 18 20
22 21 21 21 21 21 21 21 19 19 19 18 18 17 16 15 15 16 16 15 14 14 13 13 13 13 13 13 14 15 15 16 17 18 18 18 17 18 19 19 18 18 20 22 22 21 23 24 25 24 23 22 23 25 25 23 20 19 18 17 17 19 20
Wind_Direction
260 270 272 261 255 254 251 246 243 247 252 250 247 247 247 247 245 241 239 240 243 243 241 239 240 242 240 238 240 242 245 247 252 255 252 254 259 265 273 275 272 272 280 289 293 299 306 303 305 307 292 290 299 304 307 308 309 311 310 310 313 312 312
262 269 273 264 253 249 247 243 241 245 251 249 245 246 247 246 244 241 238 239 241 240 240 238 237 240 242 244 246 249 246 241 241 244 246 251 255 257 260 264 265 266 271 280 288 292 294 298 302 307 304 297 289 290 299 302 305 307 306 310 315 317 319
257 264 270 265 251 247 248 246 243 245 247 248 248 248 248 245 244 243 241 242 240 236 234 233 234 236 238 242 245 246 243 237 234 237 241 246 250 252 253 256 259 260 262 266 274 280 282 288 295 303 314 314 303 295 296 296 297 296 299 304 307 309 312
255 262 266 263 250 245 247 249 247 246 246 248 250 251 250 247 246 246 245 243 241 237 233 231 230 230 231 233 235 235 234 234 232 233 235 240 246 248 247 249 252 251 251 255 260 267 274 282 290 299 311 313 309 312 316 309 303 297 296 300 304 306 306
252 259 261 261 251 242 242 246 247 248 248 250 253 255 255 253 252 250 247 245 243 239 233 228 225 225 226 226 228 228 227 228 227 228 232 238 243 243 241 244 247 247 247 252 260 266 273 280 287 298 309 310 309 315 324 325 324 317 305 304 309 310 308
253 257 258 257 249 240 238 240 245 249 247 248 253 258 258 256 253 250 245 241 237 232 224 221 221 222 225 225 226 226 225 223 222 223 225 229 233 236 240 245 247 249 251 257 263 264 271 279 286 299 309 309 310 315 320 323 326 326 322 316 311 310 311
254 256 257 254 244 239 239 239 245 249 248 247 249 251 251 248 247 246 243 236 228 223 217 216 218 222 224 224 224 224 222 219 217 218 219 221 227 235 241 245 246 248 249 252 257 259 267 278 288 298 304 306 310 313 315 319 324 327 327 326 314 309 311
253 254 254 251 241 237 238 240 245 249 249 245 244 245 244 244 243 242 241 237 229 226 222 220 222 225 226 224 223 222 219 216 216 217 218 220 226 234 236 238 242 246 247 249 257 264 273 284 289 293 298 306 311 312 313 316 323 326 327 329 321 311 308
250 251 250 246 240 235 235 238 243 249 252 242 236 240 244 244 244 241 239 234 230 231 231 228 228 231 232 229 226 224 220 217 218 217 217 222 226 229 236 239 240 244 244 247 256 263 268 275 282 288 293 300 306 309 311 314 321 329 332 331 326 318 310
247 248 250 247 242 236 233 233 236 244 249 242 229 228 235 240 243 244 242 236 232 235 236 232 229 230 234 234 230 229 226 223 222 220 220 228 229 226 234 242 244 245 246 251 260 264 264 267 276 286 290 293 299 304 307 311 319 331 337 333 328 325 320
247 249 251 248 241 233 228 231 239 244 245 243 234 225 226 231 237 243 245 243 242 242 240 234 229 229 232 236 233 231 229 227 229 229 228 235 236 231 234 241 244 246 247 251 259 263 264 265 272 281 287 291 296 302 306 308 314 326 334 332 329 326 322
246 248 248 244 237 230 229 235 243 245 242 244 245 237 229 227 232 236 239 242 244 246 246 239 232 230 232 235 235 232 229 229 232 234 234 237 238 237 240 243 244 245 251 257 260 265 269 271 277 285 290 294 296 301 306 307 309 319 327 326 325 323 319
241 240 239 236 232 230 234 238 241 241 239 241 246 246 240 233 233 235 236 238 240 243 246 242 238 236 235 235 235 235 233 232 236 238 238 239 240 241 245 246 246 249 259 269 270 272 280 287 291 293 294 295 296 299 303 304 305 311 318 320 320 319 316
236 234 230 225 225 232 238 239 238 240 239 238 241 244 244 239 238 239 240 240 240 241 243 243 240 239 240 239 237 236 236 238 242 242 238 238 238 239 241 243 245 250 261 272 273 276 285 291 292 293 294 295 296 297 299 302 304 307 313 316 318 318 316
233 229 224 219 224 237 242 240 239 241 241 242 244 245 245 244 243 242 242 242 241 242 242 241 239 239 240 240 238 236 237 242 245 242 238 239 242 244 247 246 247 251 260 269 275 280 284 284 284 285 286 290 296 298 300 303 305 308 312 316 317 316 315
231 227 223 221 226 235 238 236 236 239 241 244 248 251 252 252 252 250 247 245 245 246 245 241 237 237 237 237 238 238 240 244 246 246 249 256 259 259 259 261 263 265 270 273 274 276 279 277 278 280 281 289 298 300 301 303 305 308 311 315 317 315 313
233 230 227 226 228 230 230 229 233 237 239 239 242 249 254 257 258 257 254 253 252 251 248 243 240 239 236 234 235 237 241 246 250 255 260 261 261 257 253 258 264 265 270 276 276 275 277 279 281 283 285 293 299 301 302 303 304 304 306 309 313 312 311
237 236 232 232 232 231 227 227 231 235 237 238 240 244 247 251 256 259 259 259 258 255 249 244 242 241 236 231 230 232 237 242 246 254 259 258 260 261 260 265 268 266 267 272 275 278 280 280 282 283 286 292 297 300 302 301 301 302 303 305 308 309 309
237 237 236 236 237 236 231 228 231 235 237 239 241 242 244 246 252 256 258 259 261 259 252 245 242 238 232 229 231 236 242 245 247 253 259 261 262 263 267 272 275 275 274 271 270 274 280 283 283 281 282 288 294 298 299 300 300 301 303 304 305 307 307
236 239 240 240 240 240 236 233 234 237 239 241 240 239 240 245 250 254 255 258 262 263 257 249 243 237 232 232 235 240 247 254 260 265 266 261 257 259 262 266 271 277 278 272 266 266 274 281 280 276 280 288 293 295 295 297 298 300 302 304 305 306 306
239 244 245 245 244 243 241 239 239 239 239 241 241 240 241 246 250 251 252 257 263 262 256 248 242 238 237 237 238 241 246 253 260 265 265 259 252 252 255 261 271 279 277 268 260 261 268 273 269 266 276 288 289 290 291 292 295 298 301 305 307 310 313
233 240 244 246 247 246 244 244 244 242 238 237 238 241 245 248 252 253 254 257 260 257 249 241 237 239 241 241 241 243 247 251 255 257 260 260 258 258 262 267 274 281 277 264 257 261 266 267 261 260 273 284 285 284 285 286 289 294 300 308 316 323 327
228 230 234 241 246 247 245 244 245 245 243 239 236 237 242 249 254 257 259 263 264 257 243 232 230 233 237 240 242 246 252 254 253 253 257 261 263 265 269 271 273 279 276 264 256 257 260 261 260 264 273 279 277 277 278 279 286 297 309 321 332 337 338
233 232 232 235 242 246 247 247 247 250 251 249 243 239 241 247 251 256 259 263 264 257 241 229 226 228 231 234 238 246 257 257 252 252 259 263 264 266 268 267 268 272 271 262 255 255 256 257 259 266 272 271 269 271 274 280 293 307 318 327 337 341 341
240 240 238 238 240 245 249 250 251 254 256 256 253 247 244 247 248 252 258 261 261 255 241 230 226 226 227 230 235 243 253 255 252 255 263 264 264 264 264 263 264 268 268 262 257 256 256 256 260 265 267 264 266 272 276 285 297 306 317 327 334 337 337
245 244 243 244 245 244 246 250 253 257 259 261 259 253 248 246 244 246 255 261 262 257 245 233 228 228 228 229 235 243 247 247 248 254 259 260 260 258 258 260 262 266 267 261 257 256 256 256 259 260 260 262 268 272 274 283 294 302 317 326 329 333 332
246 245 244 246 249 246 244 248 253 256 259 259 258 254 249 244 241 243 252 259 262 258 247 237 233 233 233 232 236 244 246 243 243 248 252 254 255 254 254 257 261 264 264 258 253 252 251 251 252 253 255 262 268 268 268 275 284 297 316 324 326 329 327
247 248 246 245 247 248 245 246 249 252 253 254 253 252 251 248 244 243 247 255 257 253 245 238 236 235 234 233 237 242 246 245 244 246 249 251 252 252 253 256 257 259 259 252 243 240 242 245 248 251 255 261 264 262 262 265 272 288 308 319 325 328 324
251 252 250 246 245 246 245 244 245 247 249 250 250 250 249 247 244 243 245 250 253 251 243 237 235 234 231 232 238 242 244 244 243 244 247 249 250 249 251 253 254 255 254 248 239 236 237 241 246 250 254 259 259 257 255 256 261 276 296 312 324 328 324
254 255 253 248 245 245 244 243 244 246 245 247 250 251 250 247 245 244 244 247 251 252 245 235 232 232 230 231 239 243 244 243 244 245 246 247 246 247 247 249 251 252 249 244 240 237 234 237 244 250 253 255 254 253 251 249 253 268 287 305 320 327 325
257 256 254 251 247 244 243 241 243 245 245 247 251 253 251 247 244 243 242 244 247 246 241 234 232 233 231 231 236 241 244 246 247 248 246 244 244 245 245 246 246 245 244 242 242 240 235 235 242 248 252 253 251 252 250 244 246 263 281 299 314 324 325
259 258 256 253 248 243 239 238 242 244 243 245 249 250 248 244 241 239 238 238 238 238 237 235 233 233 233 233 235 238 239 242 245 245 242 239 241 244 244 243 242 240 241 242 244 246 241 236 238 246 251 251 251 253 252 244 246 260 276 292 307 318 322
260 257 255 253 247 239 234 234 238 240 240 241 244 245 243 241 239 237 234 232 231 233 235 231 228 230 232 233 235 236 237 240 243 243 240 237 239 242 242 241 241 239 240 241 244 250 248 238 237 244 248 250 253 257 254 248 250 261 274 287 302 314 319
260 257 254 252 244 234 229 230 233 236 237 237 240 241 239 239 238 235 231 228 226 227 229 228 228 231 233 234 235 236 239 244 247 247 245 242 241 242 241 241 241 241 242 244 246 251 252 242 236 240 247 254 258 259 254 251 256 264 274 287 301 313 318
259 254 251 247 239 230 227 227 228 231 232 233 236 237 237 237 237 235 230 228 230 231 233 237 239 241 244 245 245 244 247 252 251 248 248 246 245 246 245 244 242 243 247 250 251 254 256 248 238 239 248 257 259 255 252 254 260 267 275 287 302 312 315
254 248 243 238 232 227 225 224 224 226 229 230 231 232 234 236 238 237 236 237 240 243 245 248 250 252 256 260 261 259 260 259 253 246 245 247 249 252 252 249 247 249 251 253 255 256 255 249 242 242 247 254 256 253 252 256 261 267 275 286 299 309 313
246 240 235 230 225 224 223 220 218 220 223 226 228 229 234 238 242 245 248 249 253 256 257 257 256 257 261 264 265 266 265 261 255 249 246 247 249 252 253 251 251 253 254 254 256 256 252 247 245 245 247 250 252 251 251 255 260 266 273 283 296 306 311